GEFSCGP_850_meantemp_234.txt.gz
Temperature
31 32 32 33 33 33 33 33 32 32 31 31 31 30 30 28 27 27 26 25 24 23 23 22 21 20 20 19 19 19 19 19 19 18 18 18 18 18 18 18 18 18 18 18
31 32 33 33 32 32 32 32 32 31 31 31 31 31 31 29 28 27 27 26 25 24 23 22 21 20 20 20 20 19 19 19 19 19 19 18 18 18 18 18 18 18 18 18
32 32 32 32 32 32 32 32 32 31 31 31 31 31 30 30 28 28 27 26 26 25 24 23 22 21 21 20 20 20 20 19 19 19 18 18 18 18 18 18 18 18 18 18
31 31 31 31 31 32 32 32 32 31 31 32 31 31 31 31 29 29 28 27 26 26 24 24 22 22 21 21 21 20 20 20 20 19 19 18 18 18 18 18 18 18 18 18
31 31 31 31 32 32 32 32 32 32 32 32 32 32 32 31 30 30 29 28 27 26 25 24 23 22 22 21 21 20 20 20 20 20 19 19 18 18 18 18 18 18 18 18
31 31 31 32 31 31 31 31 31 31 32 31 31 31 32 32 32 32 30 29 27 27 26 24 24 22 22 21 21 21 20 20 20 20 20 19 19 19 18 18 18 18 18 18
29 30 31 31 31 30 31 31 30 30 30 31 31 31 32 32 32 31 30 29 28 27 26 25 24 23 22 22 21 21 21 21 20 20 20 19 19 19 18 18 18 18 18 18
29 29 30 31 31 31 31 32 31 30 30 31 30 31 32 32 31 30 29 29 28 27 26 25 24 23 23 22 22 21 21 21 21 20 20 19 19 18 18 18 18 18 18 18
30 30 30 30 31 32 31 31 33 32 31 31 31 31 32 31 31 30 30 29 28 27 26 25 24 23 23 22 22 21 21 21 21 20 20 19 19 19 18 18 18 18 18 17
31 29 30 30 30 30 32 32 31 31 30 30 31 31 32 31 31 31 30 29 28 27 26 25 24 23 23 22 22 21 21 21 21 20 20 19 19 19 18 18 18 18 18 17
30 29 29 29 30 30 30 31 31 31 31 30 30 31 33 32 31 31 31 29 28 27 26 25 24 23 22 22 21 21 21 20 20 20 20 19 19 19 18 18 18 18 17 17
29 30 29 29 30 30 31 31 31 30 29 30 31 32 32 31 31 30 30 29 27 26 26 25 24 23 22 22 21 21 21 20 20 20 20 19 19 18 18 18 18 17 17 17
29 29 28 28 29 29 30 30 31 31 30 30 30 31 31 31 30 30 29 28 26 25 25 24 23 22 22 22 21 21 20 20 20 20 19 19 19 18 18 18 18 17 17 17
27 28 28 29 29 30 29 30 30 30 30 30 31 32 31 31 30 29 28 27 26 25 24 23 22 22 22 21 21 21 20 20 20 20 19 19 19 18 18 18 18 17 17 16
27 28 28 29 30 30 30 30 30 30 31 31 31 31 32 31 30 29 27 27 26 25 24 23 22 22 21 21 21 21 20 20 20 19 19 19 18 18 18 18 17 17 17 16
26 27 28 28 29 29 29 30 30 30 30 31 31 31 32 30 29 28 27 26 26 25 24 23 22 22 22 21 21 21 21 20 20 19 19 19 18 18 18 17 17 17 17 16
26 26 26 27 28 28 28 29 30 30 30 31 30 31 30 30 28 27 26 26 26 25 24 23 22 22 22 22 21 21 21 20 19 19 19 18 18 18 18 17 17 17 17 16
24 24 26 27 27 26 29 30 30 30 30 30 31 30 30 29 28 27 26 25 25 24 23 22 22 22 21 21 21 21 20 20 19 19 19 18 18 18 18 17 17 17 16 16
24 24 26 27 26 27 28 29 29 29 29 30 30 29 28 28 27 27 25 25 24 24 23 22 22 22 21 21 21 20 20 19 19 19 18 18 18 18 17 17 17 17 16 16
23 23 25 26 26 26 28 28 27 28 28 28 28 28 27 27 29 29 25 24 23 23 22 22 22 21 21 21 21 20 20 19 19 19 18 18 18 18 17 17 17 16 16 16
23 23 24 25 26 27 28 27 27 27 27 27 26 26 26 27 27 25 24 23 22 22 22 22 21 21 21 21 21 20 20 19 19 19 18 18 18 18 17 17 17 16 16 16
24 24 24 25 25 26 26 27 27 26 25 25 25 25 25 25 24 23 23 22 22 21 21 21 21 21 21 20 20 20 20 19 19 18 18 18 17 17 17 16 16 16 15 15
24 25 26 26 26 25 24 25 24 23 23 24 24 24 24 23 23 22 22 21 21 21 21 20 20 20 20 20 20 19 19 19 18 18 18 17 17 17 16 16 16 15 15 15
22 22 24 24 24 24 23 22 22 22 22 23 23 23 23 23 22 22 21 21 21 20 20 20 20 20 19 19 19 19 19 19 18 18 18 17 17 16 16 16 15 15 15 15
22 22 23 23 23 23 22 22 21 21 21 22 22 22 22 21 21 21 21 20 20 20 20 19 19 19 19 19 19 18 18 18 18 17 17 17 16 16 16 15 15 15 15 15
22 22 23 23 22 23 22 21 21 21 21 21 21 21 21 21 20 20 20 20 20 20 19 19 19 19 19 19 18 18 18 18 17 17 17 16 16 16 15 15 15 15 15 14

GEFSCGP_850_meantemp_240.txt.gz
Temperature
34 34 33 34 34 34 34 34 34 34 35 34 33 32 32 31 30 29 28 27 26 26 25 24 23 22 21 21 20 20 20 19 19 19 19 19 19 19 19 19 19 18 18 18
34 33 34 35 35 34 34 34 34 34 34 34 33 32 32 32 31 30 29 28 27 26 25 24 23 22 22 21 20 20 20 20 20 19 19 19 19 19 19 19 19 19 18 18
33 34 35 35 35 34 34 34 34 34 34 34 33 32 32 32 32 31 30 29 28 27 26 24 23 23 22 21 21 20 20 20 20 20 19 19 19 19 19 19 19 19 18 18
34 35 35 34 34 34 34 35 35 34 33 32 32 30 31 32 32 32 31 30 29 28 26 25 24 23 22 22 21 21 20 20 20 20 20 19 19 19 19 19 19 19 19 19
34 34 34 34 34 34 35 35 35 34 33 32 32 31 31 33 32 32 32 31 30 29 27 26 25 24 23 22 21 21 21 21 20 20 20 19 19 19 19 19 19 19 19 19
34 35 35 35 35 35 35 35 34 34 33 31 32 32 31 33 33 33 32 32 31 29 28 27 25 24 23 23 22 21 21 21 21 20 20 20 19 19 19 19 19 19 18 18
33 34 35 35 35 35 34 33 31 31 31 31 33 33 32 33 34 34 33 32 31 30 29 27 26 25 24 23 22 22 21 21 21 20 20 20 19 19 19 19 19 19 18 18
31 32 34 35 34 34 33 33 31 30 30 32 33 32 33 35 34 34 33 32 31 30 29 28 26 25 24 23 23 22 21 21 21 21 20 20 19 19 19 19 19 18 18 18
32 32 34 35 35 34 33 33 34 32 31 31 32 33 34 35 34 34 33 32 31 30 29 28 27 26 25 24 23 22 22 21 21 21 20 20 20 19 19 19 18 18 18 18
33 32 34 35 35 35 34 34 33 32 30 29 31 32 33 33 33 33 33 32 31 30 29 28 27 26 25 24 23 22 22 21 21 20 20 20 20 19 19 19 18 18 18 18
33 32 33 33 33 33 33 33 33 33 32 30 30 31 34 33 33 33 33 32 31 31 30 28 27 26 25 24 23 22 22 21 20 20 20 20 19 19 19 19 18 18 18 18
32 32 31 33 34 34 34 33 33 32 31 31 30 31 34 34 34 33 33 32 31 30 29 28 27 26 25 24 23 22 22 21 20 20 20 20 19 19 19 19 18 18 18 18
31 30 30 31 32 33 33 33 33 33 32 31 31 31 34 34 34 33 33 31 30 29 29 28 27 26 25 24 23 22 22 21 20 20 20 19 19 19 19 18 18 18 18 17
30 30 30 30 31 32 32 33 33 33 31 31 32 32 32 33 33 33 32 31 30 29 28 27 26 25 24 24 23 22 22 21 21 20 20 19 19 19 19 18 18 18 17 17
30 29 30 31 32 33 33 33 33 33 32 32 32 33 33 32 33 32 31 31 30 28 27 26 25 24 24 23 23 22 22 21 21 20 20 19 19 19 19 18 18 18 17 17
29 28 29 30 31 32 32 33 33 33 33 33 33 33 33 33 32 31 31 30 29 28 27 26 25 24 23 23 22 22 21 21 21 20 20 19 19 18 18 18 18 17 17 17
28 27 27 28 30 31 31 32 33 33 33 33 32 32 32 32 31 31 30 29 29 28 27 26 25 24 23 22 22 22 21 21 20 20 19 19 19 18 18 18 18 17 17 17
26 26 27 28 28 28 31 33 33 33 33 33 33 33 32 31 31 30 30 29 28 27 27 26 24 24 23 22 22 22 21 21 20 20 19 19 18 18 18 17 17 17 17 17
27 26 26 27 27 28 31 32 33 32 31 33 32 32 32 31 30 30 29 28 27 27 26 25 24 24 23 22 22 21 21 20 20 20 19 19 19 18 18 17 17 17 17 17
27 26 26 26 27 27 30 32 33 32 30 32 32 31 31 31 30 29 28 27 27 26 25 25 24 23 22 22 22 21 21 20 20 20 19 19 18 18 18 18 18 17 17 17
25 25 25 25 26 28 31 32 32 29 29 30 31 30 29 29 29 28 27 26 26 25 24 24 23 23 22 22 21 21 20 20 20 20 19 19 18 18 18 18 18 17 17 16
25 25 25 25 26 27 30 31 29 28 29 29 29 29 29 28 28 27 26 25 25 24 24 23 23 22 21 21 21 20 20 20 20 19 19 19 18 18 18 17 17 17 17 16
26 26 27 26 27 27 28 28 27 27 28 28 28 28 27 27 27 26 25 24 24 23 23 22 22 21 21 21 21 20 20 20 19 19 19 18 18 18 17 17 17 17 16 16
26 27 26 26 26 27 26 26 26 26 26 27 27 27 27 26 26 25 24 24 23 22 22 22 21 21 20 20 20 20 20 19 19 19 18 18 18 17 17 17 17 16 16 16
25 26 26 25 25 26 26 26 25 26 26 26 26 26 26 25 25 24 23 23 22 21 21 21 20 20 20 20 20 19 19 19 19 18 18 18 18 17 17 17 16 16 16 16
24 24 24 24 24 24 24 24 24 24 25 25 25 25 25 24 24 23 23 22 21 21 20 20 20 20 20 20 19 19 19 19 18 18 18 18 17 17 17 17 16 16 16 16

GEFSCGP_850_meantemp_246.txt.gz
Temperature
29 26 25 26 26 27 27 27 27 27 28 27 25 25 25 25 25 24 24 23 23 23 23 22 22 21 21 21 20 20 20 20 20 19 19 19 19 19 19 18 18 18 18 18
26 26 27 28 28 28 28 27 27 28 28 27 25 25 25 25 25 25 24 23 23 23 23 22 22 22 21 21 21 21 20 20 20 20 19 19 19 19 19 18 18 18 18 18
26 27 29 29 29 28 28 27 27 27 27 26 26 25 24 25 25 25 25 24 24 23 23 22 22 22 22 21 21 21 21 20 20 20 19 19 19 19 19 19 18 18 18 18
27 28 29 29 29 29 27 29 29 28 26 24 25 23 24 24 24 24 25 24 24 24 23 23 23 22 22 22 22 21 21 20 20 20 19 19 19 19 19 19 18 18 18 18
27 29 29 29 29 29 28 29 29 27 25 24 24 23 23 24 24 24 25 25 24 24 24 24 23 23 23 22 22 22 21 21 20 20 20 19 19 19 19 18 18 18 18 18
27 29 29 29 30 30 29 28 26 23 22 23 24 24 24 23 24 25 25 25 25 24 24 24 24 23 23 23 22 22 21 21 21 20 20 19 19 19 18 18 18 18 18 18
27 28 29 30 29 29 27 24 23 24 22 23 23 24 23 25 26 26 26 26 26 25 24 24 24 23 23 23 22 22 22 21 21 20 20 20 19 19 19 18 18 18 18 18
25 25 28 29 29 27 27 24 23 24 23 23 24 24 24 26 27 27 27 27 26 25 25 24 24 24 23 23 23 22 22 22 21 20 20 20 19 19 19 18 18 18 18 18
25 25 28 30 30 28 27 24 23 22 23 23 23 24 25 26 26 26 26 26 26 26 25 25 24 24 24 24 23 23 23 22 21 21 20 20 20 19 19 19 18 18 18 18
25 25 27 29 30 29 27 25 22 22 22 23 24 24 24 25 25 25 25 26 26 26 25 25 25 24 24 24 24 23 23 22 22 21 21 20 20 19 19 19 18 18 18 18
24 24 25 27 28 28 27 26 22 20 21 22 23 23 25 24 25 24 25 26 26 26 26 25 25 25 24 24 23 23 23 22 22 21 21 20 20 19 19 19 18 18 18 18
23 21 23 25 26 28 27 26 22 22 22 20 21 23 26 25 25 25 26 26 26 26 26 26 25 25 24 24 23 23 23 22 22 21 21 20 20 19 19 19 19 18 18 18
23 21 22 23 24 26 27 26 23 21 20 20 22 24 25 25 25 26 26 26 26 26 25 25 25 24 24 24 23 23 22 22 22 21 20 20 20 19 19 19 19 18 18 18
23 20 21 23 23 24 26 26 25 22 21 22 23 24 25 24 24 25 26 26 26 25 25 25 25 24 24 24 23 23 22 22 21 21 20 20 20 19 19 19 19 18 18 18
22 21 22 23 24 26 26 26 26 25 23 23 24 24 24 24 25 25 26 26 25 25 25 25 24 24 24 23 23 23 22 22 21 21 20 20 20 19 19 19 18 18 18 17
19 21 22 23 25 25 26 26 26 26 25 25 25 24 24 25 26 25 25 25 24 24 25 25 24 24 24 24 23 23 22 22 21 21 20 20 19 19 19 19 18 18 18 17
18 19 20 21 23 25 24 25 26 26 26 25 25 24 24 24 24 25 25 25 25 25 25 25 25 24 24 24 23 23 22 22 21 21 20 20 19 19 19 18 18 18 17 17
18 17 17 19 22 23 23 24 26 26 25 25 24 24 24 24 26 26 26 26 25 25 25 25 25 25 24 24 23 23 22 22 21 21 20 20 19 19 19 18 18 18 17 17
17 18 17 17 20 21 23 25 26 25 24 24 24 24 25 25 25 25 26 26 26 26 26 25 25 25 24 24 23 23 22 22 21 21 20 20 20 19 19 18 18 18 17 17
17 17 17 17 20 21 22 24 26 24 23 23 23 23 24 24 21 22 25 25 25 25 25 25 24 24 24 23 23 22 22 22 21 21 20 20 20 19 19 18 18 18 17 17
18 17 17 18 19 20 22 24 25 23 22 24 24 24 24 23 23 25 25 25 25 25 25 24 24 23 23 23 23 22 22 22 21 21 20 20 19 19 19 18 18 17 17 17
17 17 17 17 18 20 22 23 22 21 23 24 24 24 24 25 25 25 25 25 25 24 24 24 23 23 23 22 22 22 22 22 21 20 20 20 19 19 18 18 17 17 17 17
17 17 16 17 18 20 22 23 23 23 23 24 24 24 24 24 24 24 24 24 24 24 23 23 23 22 22 22 22 22 21 21 20 20 20 19 19 18 18 18 17 17 17 16
17 17 16 17 19 20 22 23 23 23 23 24 24 24 24 24 24 23 23 23 23 23 23 22 22 22 21 21 21 21 21 20 20 20 19 19 18 18 18 17 17 17 17 16
16 16 16 17 18 20 21 22 22 23 23 23 23 23 23 23 23 23 23 23 22 22 22 22 22 21 21 21 20 20 20 20 19 19 19 18 18 18 17 17 17 17 17 16
15 16 16 16 17 17 19 21 22 22 22 22 23 23 23 23 22 22 22 22 22 21 21 21 21 21 20 20 20 20 19 19 19 19 18 18 18 17 17 17 17 16 16 16

GEFSCGP_850_meantemp_252.txt.gz
Temperature
26 23 23 23 24 25 24 24 24 24 24 24 23 22 21 21 21 21 21 21 21 21 22 21 21 21 20 20 20 20 19 19 19 19 18 18 18 18 18 18 18 18 18 18
24 24 25 24 24 25 25 25 24 24 25 24 23 22 22 21 21 21 21 21 21 22 22 22 21 21 21 20 20 20 20 19 19 19 19 18 18 18 18 18 18 18 18 18
25 25 25 25 25 25 25 24 24 24 24 23 23 23 22 22 22 22 22 22 22 22 22 22 22 21 21 21 20 20 20 20 19 19 19 18 18 18 18 18 18 18 17 17
24 25 26 26 25 25 24 25 25 24 23 22 23 22 22 22 21 21 22 22 22 23 23 23 22 22 21 21 21 20 20 20 19 19 19 19 18 18 18 18 18 18 18 17
24 25 26 25 26 25 25 25 24 23 22 21 22 22 22 21 22 21 22 23 23 23 23 23 23 23 22 22 21 21 20 20 20 19 19 19 19 18 18 18 18 18 17 17
24 25 26 26 26 25 24 23 22 20 20 22 22 22 22 21 22 22 23 23 24 24 24 24 24 23 23 22 21 21 21 20 20 20 19 19 19 18 18 18 18 18 18 17
25 25 25 26 25 25 24 22 21 22 20 21 21 21 21 22 22 23 23 24 25 24 24 24 24 23 23 22 22 22 21 21 20 20 20 19 19 19 18 18 18 18 18 18
23 23 25 25 25 24 23 22 22 22 21 21 21 21 22 23 24 24 25 25 25 25 24 24 25 24 24 23 23 22 22 21 21 20 20 19 19 19 19 18 18 18 18 18
22 23 25 25 25 24 23 21 21 19 20 21 21 21 22 23 23 23 24 25 25 25 25 25 25 25 24 24 23 23 22 21 21 20 20 20 19 19 19 18 18 18 18 18
22 23 24 24 24 23 22 20 19 19 20 21 22 22 22 24 24 23 22 23 24 25 25 25 25 25 24 24 23 23 22 22 21 21 20 20 20 19 19 18 18 18 18 18
22 23 24 24 24 24 22 21 18 17 19 20 22 22 22 22 23 22 23 24 24 25 25 25 25 25 25 24 23 23 23 22 21 21 21 20 20 19 19 19 18 18 18 18
20 19 21 23 23 23 23 21 19 21 20 18 20 21 23 22 22 22 23 24 24 25 25 25 25 25 24 24 24 23 23 22 22 21 21 20 20 19 19 19 19 18 18 18
19 19 21 22 22 22 22 21 19 18 17 17 20 23 23 22 22 23 23 24 24 24 25 25 25 25 24 24 24 23 23 22 22 21 21 20 20 20 19 19 19 18 18 18
19 18 20 21 21 21 22 21 20 19 19 19 20 22 23 22 21 22 23 23 24 24 25 25 24 24 24 24 24 23 23 22 22 21 21 20 20 20 19 19 18 18 18 18
18 19 20 20 22 22 23 22 21 21 20 20 21 21 22 21 21 22 23 23 24 24 25 25 25 24 24 24 24 23 23 22 22 21 21 20 20 19 19 19 18 18 18 17
16 18 20 21 21 22 23 22 22 22 21 21 22 22 21 21 22 22 23 23 23 24 25 25 25 25 24 24 24 24 23 23 22 21 21 20 20 19 19 19 18 18 18 17
14 17 18 19 20 22 22 22 22 22 21 21 22 22 21 21 21 22 23 24 24 25 25 25 25 25 25 24 24 24 23 23 22 21 21 20 20 19 19 18 18 18 18 17
15 14 15 17 20 21 21 21 22 22 21 20 21 21 20 21 23 24 25 25 25 25 25 25 25 25 25 24 24 23 23 22 22 21 21 20 20 19 19 19 18 18 17 17
13 14 14 15 18 20 21 21 21 21 21 20 20 20 21 22 22 23 24 25 25 25 25 26 25 25 25 24 24 23 23 22 22 21 21 20 20 19 19 18 18 18 17 17
13 13 14 15 18 19 20 21 21 21 21 20 19 19 20 21 20 21 24 24 24 24 25 25 25 25 24 24 24 23 23 22 22 21 21 20 20 19 19 18 18 18 17 17
15 14 15 15 17 18 19 20 21 21 20 21 21 21 20 20 21 23 24 24 24 24 24 24 24 24 24 24 23 23 22 22 22 21 20 20 20 19 19 18 18 17 17 17
15 14 14 14 17 18 19 19 19 19 20 21 21 21 21 21 22 23 23 24 24 24 24 24 23 23 23 23 23 22 22 22 21 21 20 20 19 19 18 18 18 17 17 17
13 14 13 15 16 17 18 19 20 21 20 21 21 21 21 21 21 22 23 23 23 23 23 23 23 23 22 22 22 22 22 21 21 20 20 19 19 18 18 18 17 17 17 16
13 13 13 14 15 16 18 19 20 20 20 21 21 21 21 21 21 21 22 22 22 22 22 22 22 22 22 22 22 21 21 21 20 20 19 19 18 18 18 18 17 17 17 16
13 13 13 14 15 16 17 18 19 19 20 20 21 21 21 21 21 21 21 22 22 21 21 21 21 21 21 21 21 21 20 20 20 19 19 18 18 18 17 17 17 17 17 16
12 12 13 14 15 15 16 18 18 19 19 20 20 20 20 20 20 21 21 21 21 21 21 21 21 21 21 20 20 20 20 19 19 19 18 18 18 17 17 17 17 17 16 16

GEFSCGP_850_meantemp_258.txt.gz
Temperature
31 32 32 33 33 33 33 32 32 31 31 31 31 30 30 28 27 27 26 25 25 24 23 22 21 21 20 20 19 19 19 19 18 18 18 18 18 18 18 18 18 17 17 17
31 32 33 33 32 32 32 32 32 31 31 31 31 31 30 29 28 27 27 26 26 25 24 22 22 21 21 20 20 19 19 19 19 19 18 18 18 18 18 18 17 17 17 17
32 32 32 32 32 31 32 32 32 31 31 31 31 31 30 30 28 28 27 27 26 25 24 23 22 21 21 21 20 20 20 19 19 19 18 18 18 18 18 18 17 17 17 17
32 32 31 31 31 32 31 32 32 31 31 31 31 31 31 30 30 29 28 27 27 26 25 24 23 22 21 21 21 20 20 20 20 19 19 18 18 18 18 18 18 17 17 17
31 31 31 31 31 32 31 32 32 31 31 31 31 31 32 31 30 30 29 28 27 27 26 25 24 23 22 22 21 21 20 20 20 19 19 19 19 18 18 18 18 17 17 17
32 32 32 32 32 31 31 31 31 31 32 30 31 31 31 32 31 31 30 29 28 27 26 25 24 23 22 22 21 21 21 20 20 20 19 19 19 18 18 18 18 18 18 17
30 31 31 31 31 31 31 31 30 30 30 30 31 31 31 32 32 32 31 30 29 28 27 26 24 23 23 22 22 21 21 21 20 20 19 19 19 18 18 18 18 18 18 18
30 30 31 31 31 31 31 31 30 30 30 31 30 31 32 32 31 30 30 30 29 28 27 26 25 24 23 22 22 21 21 21 21 20 20 20 19 19 18 18 18 18 18 18
30 30 31 31 31 32 31 31 32 31 31 31 31 31 32 32 31 31 30 30 29 28 27 26 25 24 24 23 22 22 22 22 21 21 20 20 20 19 19 18 18 18 18 17
31 30 30 30 31 31 32 32 31 31 29 30 30 31 31 31 31 31 31 30 29 28 27 26 25 25 24 23 23 22 22 22 21 21 21 20 20 20 19 19 18 18 18 18
31 30 30 30 30 30 30 31 31 31 31 30 30 31 32 31 31 31 31 30 29 28 27 26 25 24 24 23 23 22 22 22 22 21 21 20 20 20 19 19 19 18 18 18
29 30 30 30 30 31 31 31 31 30 30 30 31 31 32 32 31 31 31 29 28 28 27 26 25 24 23 23 23 23 22 22 22 21 21 21 20 20 19 19 19 19 18 18
28 29 28 29 29 30 30 30 31 31 31 30 31 31 31 31 31 30 30 28 27 26 26 26 25 24 23 23 23 23 22 22 21 21 21 21 20 20 19 19 19 19 18 18
26 28 29 29 30 30 30 30 30 30 30 30 31 31 31 31 31 30 29 28 27 26 25 25 24 23 23 23 23 22 22 22 21 21 21 20 20 20 20 19 19 19 18 18
27 27 28 29 30 30 30 30 30 30 31 31 31 31 31 30 30 29 28 28 27 26 25 24 24 23 23 23 23 22 22 22 21 21 21 20 20 20 20 19 19 19 18 18
25 26 27 28 29 29 29 30 30 30 30 31 31 31 31 30 29 28 27 27 27 26 25 24 24 23 23 23 23 23 22 22 22 21 21 21 20 20 20 19 19 19 18 18
25 25 26 27 28 28 28 29 29 30 30 30 30 30 30 30 29 28 27 26 26 25 25 24 23 23 23 23 23 23 23 22 22 21 21 20 20 20 20 19 19 18 18 18
23 24 26 27 27 26 28 30 30 29 29 30 30 30 29 29 28 27 26 26 25 25 24 24 23 23 23 23 23 23 22 22 22 21 21 20 20 20 20 19 19 18 18 18
23 23 25 26 26 27 28 28 29 28 28 28 28 29 28 28 28 27 26 25 24 24 24 23 23 23 23 23 22 22 22 22 21 21 21 21 20 20 20 19 19 18 18 18
22 23 25 25 26 26 27 28 28 28 27 27 27 27 27 28 29 28 25 24 24 23 23 23 23 22 22 23 22 22 22 21 21 21 20 20 20 20 19 19 19 18 18 17
23 23 24 25 25 27 27 27 27 26 26 26 26 26 26 26 27 25 24 23 23 23 22 22 22 22 22 22 22 22 21 21 21 20 20 20 20 19 19 19 18 18 18 17
23 24 23 24 25 25 26 26 26 25 24 25 25 25 25 24 24 23 23 22 22 22 22 22 21 21 21 21 21 21 21 21 20 20 20 19 19 19 19 18 18 18 17 17
23 24 24 24 24 23 23 23 23 22 23 23 24 23 23 23 23 23 22 22 22 21 21 21 21 21 21 21 21 21 21 20 20 20 20 19 19 19 18 18 18 17 17 17
21 21 22 22 23 22 22 21 21 21 21 22 22 22 22 22 22 22 21 21 21 21 21 21 21 21 21 20 20 20 20 20 20 20 19 19 19 18 18 18 17 17 17 17
21 21 22 21 21 21 21 20 20 20 20 20 21 21 21 21 21 21 21 21 21 20 20 20 20 20 20 20 20 20 20 20 19 19 19 18 18 18 17 17 17 17 17 17
20 21 21 21 20 21 20 19 19 19 19 19 20 20 20 20 20 20 20 20 20 20 20 19 19 19 19 19 19 19 19 19 19 18 18 18 18 17 17 17 17 17 17 17

GEFSCGP_850_meantemp_264.txt.gz
Temperature
33 33 32 32 34 34 34 34 34 34 34 34 33 32 31 31 30 30 29 28 27 26 25 24 24 23 22 21 20 20 20 20 19 19 19 19 19 19 19 19 19 18 18 18
33 32 34 34 35 35 34 33 33 34 34 34 33 32 32 31 31 30 29 28 28 27 26 25 24 23 22 21 21 20 20 20 20 19 19 19 19 19 19 19 19 18 18 18
33 33 34 34 34 34 34 33 33 33 34 34 32 31 31 32 32 31 30 29 29 28 26 25 24 24 23 22 21 21 20 20 20 20 19 19 19 19 19 19 19 19 18 18
33 34 34 34 34 34 33 34 34 34 33 32 32 30 31 32 32 32 31 30 30 28 27 26 25 24 23 22 22 21 21 20 20 20 20 20 19 19 19 19 19 19 18 18
33 34 34 34 34 34 34 35 34 34 33 32 32 31 31 32 32 32 32 31 30 29 28 27 25 24 24 23 22 21 21 21 20 20 20 20 20 19 19 19 19 19 19 18
34 34 34 34 35 35 35 34 33 33 33 31 31 31 31 31 32 32 32 31 31 30 29 27 26 25 24 23 23 22 21 21 21 20 20 20 20 20 19 19 19 19 19 19
32 34 35 35 34 34 34 32 30 30 30 30 31 31 31 33 33 33 33 32 31 30 29 28 26 25 24 24 23 22 21 21 21 21 20 20 20 20 20 19 19 19 19 19
31 32 34 34 34 33 33 32 30 29 29 30 31 30 32 33 33 33 33 32 31 30 29 28 27 26 25 24 23 23 22 22 21 21 21 20 20 20 20 20 19 19 19 19
32 32 34 35 35 34 33 33 33 31 31 30 30 31 32 33 33 34 33 32 31 30 29 28 27 26 25 24 24 23 22 22 22 21 21 21 21 20 20 20 20 19 19 19
32 31 33 34 34 34 34 33 33 31 29 28 29 30 30 31 32 33 33 32 31 30 30 28 28 27 26 25 24 23 23 22 22 22 21 21 21 21 20 20 20 19 19 19
32 31 32 33 33 33 33 33 32 32 30 29 28 30 32 31 32 32 32 32 31 30 29 28 28 27 26 25 24 24 23 22 22 22 21 21 21 21 20 20 20 19 19 19
32 31 31 32 34 34 34 33 33 31 30 30 29 29 32 31 32 32 32 32 31 30 30 29 28 27 26 25 25 24 23 22 22 22 21 21 21 20 20 20 20 19 19 19
30 30 29 30 32 33 33 33 33 33 31 30 29 29 31 31 31 32 31 31 30 30 29 28 27 26 26 25 25 24 23 23 22 22 21 21 21 20 20 20 19 19 19 19
29 29 29 29 30 32 32 33 33 33 31 30 30 30 30 30 31 31 31 31 30 30 29 28 27 26 25 25 24 24 23 23 22 22 22 21 21 21 20 20 20 19 19 19
29 29 29 30 31 32 32 32 33 32 32 31 31 31 31 31 31 31 31 31 30 29 28 27 26 26 25 25 24 24 23 23 22 22 21 21 21 21 20 20 19 19 19 19
29 28 29 29 31 31 31 32 32 33 33 32 31 31 32 31 31 31 30 30 29 29 28 27 26 25 25 24 24 23 23 23 22 22 21 21 21 20 20 20 19 19 19 19
28 27 27 28 30 30 30 31 32 32 33 32 31 31 31 31 30 30 29 29 29 28 28 27 26 25 24 24 24 23 23 22 22 21 21 21 21 20 20 19 19 19 19 19
26 25 26 27 28 27 29 32 32 32 32 33 32 32 31 31 30 29 29 28 28 27 27 26 26 25 24 24 23 23 22 22 22 21 21 21 20 20 19 19 19 19 19 18
26 25 26 27 27 28 29 31 31 31 30 32 31 31 31 31 30 29 28 28 27 26 26 25 25 25 24 23 23 22 22 22 21 21 21 20 20 20 19 19 19 19 18 18
26 25 25 26 26 26 28 30 31 31 29 31 30 30 30 30 29 28 27 27 26 26 25 25 24 24 23 23 22 22 21 21 21 21 20 20 20 20 19 19 19 19 18 18
25 24 24 25 25 26 29 30 30 28 27 29 29 28 28 28 28 27 26 26 25 25 25 24 24 23 23 23 22 22 21 21 21 20 20 20 20 19 19 19 19 19 18 18
25 25 24 24 24 25 28 28 27 26 27 27 27 27 27 27 26 26 25 25 25 24 24 24 23 23 22 22 22 21 21 21 20 20 19 19 19 19 19 19 18 18 18 18
25 25 25 25 25 25 26 25 25 25 26 26 26 26 26 26 26 25 25 24 24 24 23 23 23 22 22 21 21 21 20 20 20 19 19 19 19 18 18 18 18 18 18 17
25 25 25 24 24 25 25 25 25 25 25 25 25 25 25 25 25 24 24 23 23 23 22 22 22 21 21 20 20 20 20 20 19 19 19 18 18 18 18 18 18 17 17 17
24 24 24 23 24 24 24 24 24 24 24 24 24 24 24 24 23 23 23 22 22 22 22 21 21 21 20 20 19 19 19 19 19 19 18 18 18 18 18 18 18 17 17 17
23 23 23 23 23 23 23 23 23 23 23 23 23 23 23 23 22 22 22 22 21 21 21 21 20 20 20 19 19 19 19 19 19 18 18 18 17 17 17 17 17 17 17 17

GEFSCGP_850_meantemp_270.txt.gz
Temperature
28 25 25 25 26 26 26 26 26 27 28 27 25 25 24 25 24 24 24 23 23 23 23 23 22 22 21 21 21 20 20 20 20 19 19 19 19 19 19 19 18 18 18 18
25 25 27 27 28 27 27 26 26 27 28 27 25 25 25 25 24 24 24 24 23 23 23 22 22 22 22 21 21 21 20 20 20 20 19 19 19 19 19 19 19 18 18 18
25 26 28 29 28 28 27 26 27 27 28 27 25 24 24 25 25 25 25 24 24 24 23 23 22 22 22 22 21 21 21 20 20 20 19 19 19 19 19 19 19 19 18 18
26 27 29 28 28 28 27 28 28 28 26 24 25 23 23 24 24 24 25 24 24 24 24 23 23 22 22 22 22 21 21 21 20 20 19 19 19 19 19 19 19 19 19 19
26 28 28 28 28 28 27 28 28 27 25 24 24 23 23 23 23 24 24 25 24 24 24 23 23 23 23 22 22 22 21 21 20 20 20 19 19 19 19 19 19 19 19 19
27 28 28 28 29 29 28 27 26 24 22 23 24 23 23 22 24 24 24 25 24 24 24 24 23 23 23 22 22 22 21 21 21 20 20 20 20 19 19 19 19 19 19 19
26 27 28 29 28 27 27 24 23 23 22 22 23 23 23 24 25 25 25 25 25 24 24 24 23 23 23 22 22 22 22 21 21 21 20 20 20 20 19 19 19 19 19 19
25 25 27 28 28 26 25 24 22 23 22 22 23 24 24 25 26 26 26 25 25 25 24 24 24 23 23 23 23 22 22 22 21 21 21 21 20 20 20 20 19 19 19 19
24 25 27 29 29 27 26 24 23 22 22 22 22 23 24 25 25 25 25 25 25 25 24 24 24 24 23 23 23 23 22 22 22 22 21 21 21 20 20 20 19 19 19 19
24 25 26 28 28 27 26 24 22 21 22 22 23 23 23 24 24 24 24 24 25 25 25 24 24 24 24 24 23 23 23 23 22 22 22 21 21 21 20 20 20 20 19 19
24 23 25 26 27 26 26 25 22 20 21 21 22 22 24 24 24 24 24 25 25 25 25 25 25 24 24 24 23 23 23 23 22 22 22 21 21 21 20 20 20 20 19 19
22 21 22 24 26 27 26 25 22 22 21 20 21 22 25 24 24 24 25 25 26 25 25 25 25 24 24 24 24 23 23 23 22 22 22 21 21 21 21 20 20 19 19 19
22 20 22 23 24 25 26 25 23 21 20 20 21 23 24 23 24 25 26 26 26 26 25 25 25 24 24 24 24 23 23 23 22 22 22 21 21 21 21 20 20 19 19 19
22 20 21 22 23 24 25 26 25 22 21 21 22 23 23 23 23 24 25 26 26 26 25 25 25 24 24 24 24 23 23 23 23 22 22 21 21 21 21 20 20 19 19 19
20 20 22 22 24 25 26 26 26 24 22 22 22 23 23 23 23 24 25 25 25 25 25 25 25 24 24 24 24 24 23 23 23 22 22 22 21 21 21 20 20 19 19 19
18 20 21 22 24 25 25 25 26 25 24 23 23 23 23 24 25 24 25 25 24 24 24 24 24 24 24 24 24 23 23 23 22 22 22 22 21 21 20 20 20 19 19 19
17 18 19 20 22 24 23 24 25 24 24 24 23 23 23 23 23 24 24 24 24 24 24 24 24 24 24 24 24 23 23 22 22 22 22 21 21 21 20 20 20 19 19 19
17 17 16 18 21 22 22 23 25 24 24 23 22 22 23 23 24 25 25 25 24 24 24 24 24 24 24 24 23 23 22 22 22 21 21 21 21 20 20 20 19 19 19 18
17 17 17 17 19 21 22 24 24 23 22 22 22 22 23 23 23 23 24 24 24 24 24 24 24 23 23 23 23 23 22 22 21 21 21 21 20 20 20 19 19 19 18 18
17 16 16 17 19 20 21 23 25 23 21 22 22 21 22 22 20 21 23 24 24 24 24 23 23 23 23 23 23 22 22 21 21 21 21 20 20 20 19 19 19 18 18 18
17 17 17 17 18 19 21 23 23 21 20 21 22 21 21 21 21 22 23 23 24 24 24 23 23 23 23 22 22 22 21 21 21 21 20 20 20 19 19 19 19 18 18 17
16 16 16 16 17 18 21 22 20 19 21 22 21 22 22 22 22 23 23 23 23 23 23 23 23 23 22 22 22 21 21 21 20 20 20 20 19 19 18 18 18 18 17 17
16 16 15 16 17 18 20 20 21 21 21 21 21 21 22 21 22 22 22 22 22 23 23 23 22 22 22 22 21 21 21 20 20 20 19 19 19 18 18 18 17 17 17 16
16 16 15 16 17 18 20 20 20 21 21 21 21 21 21 21 21 21 21 22 22 22 22 22 22 22 21 21 21 20 20 20 19 19 19 18 18 18 18 17 17 17 16 16
15 15 15 15 16 18 19 19 19 20 20 21 21 21 21 21 21 21 21 21 21 21 21 22 22 22 21 21 20 20 19 19 19 18 18 18 18 17 17 17 16 16 16 16
14 14 14 14 16 16 17 19 19 19 19 20 20 20 20 20 20 20 20 20 20 21 21 21 21 21 21 20 20 19 19 19 19 18 18 17 17 17 17 16 16 16 16 16

GEFSCGP_850_meantemp_276.txt.gz
Temperature
25 23 23 23 23 24 24 24 24 24 24 23 22 22 21 21 21 21 21 21 21 21 21 21 21 20 20 20 20 20 20 19 19 19 19 18 18 18 18 18 18 18 18 18
23 23 24 24 24 24 24 24 24 24 24 24 22 22 21 21 21 21 21 21 21 21 21 21 21 21 20 20 20 20 20 19 19 19 19 19 18 18 18 18 18 18 18 18
24 24 25 25 24 24 24 24 24 24 24 23 23 22 22 21 22 22 22 22 22 22 22 22 21 21 21 21 20 20 20 20 19 19 19 19 19 18 18 18 18 18 18 18
24 24 25 25 24 24 24 24 24 24 23 21 23 21 21 21 21 21 22 21 22 22 22 22 22 21 21 21 21 20 20 20 20 19 19 19 19 19 19 18 18 18 18 18
24 25 25 25 25 25 24 24 24 23 22 21 21 21 21 21 21 21 21 22 22 22 22 22 22 22 22 21 21 21 20 20 20 19 19 19 19 19 19 18 18 18 18 18
24 25 25 25 25 25 24 23 22 20 20 21 21 21 21 20 21 21 22 22 22 22 22 23 23 22 22 21 21 21 20 20 20 20 19 19 19 19 19 19 19 19 18 18
24 25 25 25 25 24 23 21 21 21 20 20 21 21 21 22 21 22 22 23 23 23 23 23 23 22 22 22 21 21 21 21 20 20 20 19 19 19 19 19 19 19 19 18
23 23 24 25 24 23 22 22 21 22 21 20 21 21 22 22 22 23 23 23 23 23 23 23 23 23 23 22 22 21 21 21 21 20 20 20 19 19 19 19 19 19 19 18
22 23 24 24 24 23 22 21 21 19 20 20 20 21 21 22 22 22 22 23 23 23 23 23 23 23 23 23 22 22 22 21 21 21 20 20 20 20 19 19 19 19 19 18
21 23 23 24 24 22 22 19 18 19 20 21 22 21 21 23 22 22 21 22 23 23 23 23 23 23 23 23 23 22 22 22 21 21 21 20 20 20 20 19 19 19 19 18
21 22 22 23 23 23 21 20 18 17 18 19 21 21 22 22 22 21 21 23 23 24 23 23 23 23 23 23 23 22 22 22 21 21 21 21 20 20 20 20 20 19 19 19
19 18 20 22 22 22 22 20 18 20 19 18 19 20 22 21 21 21 22 23 24 24 24 23 23 23 23 23 23 22 22 22 22 21 21 21 21 20 20 20 20 19 19 19
19 18 20 21 21 21 22 20 19 17 17 17 19 21 22 21 21 22 23 23 24 24 23 23 23 23 23 23 23 23 22 22 22 21 21 21 21 20 20 20 20 19 19 19
18 17 19 21 21 21 21 21 19 19 18 18 19 21 21 21 21 21 23 24 24 23 23 23 23 23 23 23 23 23 23 22 22 22 21 21 21 21 20 20 20 19 19 19
17 18 19 19 20 21 22 22 21 20 19 20 20 20 21 21 20 22 23 23 23 23 23 23 23 23 23 23 23 23 23 22 22 22 21 21 21 20 20 20 19 19 19 19
15 18 19 20 20 21 21 21 21 21 20 20 21 20 20 20 21 22 22 22 22 23 23 23 23 23 23 22 22 22 22 22 22 21 21 21 21 20 20 20 19 19 19 18
15 17 18 18 19 21 21 21 21 20 20 20 20 20 19 19 20 21 22 22 22 23 23 23 23 23 23 22 22 22 22 22 21 21 21 21 20 20 20 19 19 19 19 18
15 14 14 16 19 20 20 20 20 20 20 19 19 19 18 19 20 21 22 22 22 22 23 23 23 23 23 22 22 22 21 21 21 21 21 20 20 20 20 19 19 19 18 18
13 14 14 15 17 18 20 20 20 20 19 18 18 18 19 19 20 20 21 21 22 22 22 23 23 23 22 22 22 21 21 21 21 20 20 20 20 19 19 19 19 18 18 18
13 13 14 14 17 18 19 20 20 19 19 18 18 17 18 18 18 19 21 21 22 22 22 22 22 22 22 21 21 21 21 21 21 20 20 20 19 19 19 18 18 18 18 17
14 14 14 15 16 17 17 18 20 19 18 18 18 18 17 17 18 19 20 21 21 22 22 22 22 22 22 21 21 21 21 20 20 20 20 19 19 19 18 18 18 17 17 17
14 14 13 13 16 17 17 18 17 17 18 18 18 18 18 18 18 19 20 20 21 21 22 22 22 22 21 21 21 21 20 20 20 19 19 19 19 18 18 18 17 17 17 17
13 13 13 13 15 15 16 17 18 18 18 18 18 18 18 18 19 19 20 20 20 21 21 21 21 21 21 21 21 21 20 20 20 19 19 19 18 18 18 17 17 16 16 16
13 12 12 13 14 15 16 17 18 18 18 18 19 19 19 18 19 19 19 20 20 20 20 20 20 20 21 21 20 20 20 20 19 19 19 18 18 18 17 17 16 16 16 16
12 12 12 13 13 15 16 17 17 17 18 18 18 19 19 19 19 19 19 19 19 19 20 20 20 20 20 20 20 20 20 19 19 19 18 18 18 17 17 16 16 16 16 16
11 12 12 13 14 13 15 16 17 17 17 17 18 18 18 18 18 18 18 18 19 19 19 19 19 20 20 20 20 20 19 19 19 18 18 18 17 17 17 16 16 15 15 15

GEFSCGP_850_meantemp_282.txt.gz
Temperature
30 32 32 32 32 32 32 31 31 31 30 30 29 29 29 27 27 26 26 25 24 23 23 22 21 21 20 20 19 19 19 19 19 18 18 18 18 18 18 18 18 18 17 17
31 31 32 32 31 31 31 31 31 30 30 30 30 29 29 28 27 27 26 25 25 24 23 22 21 21 20 20 20 20 19 19 19 19 19 18 18 18 18 18 18 18 18 18
31 32 31 31 31 30 31 31 31 30 30 30 30 29 29 29 28 27 26 26 25 25 24 23 22 21 21 20 20 20 19 19 19 19 19 18 18 18 18 18 18 18 18 18
31 31 30 31 31 31 30 31 31 30 30 30 30 30 30 29 28 28 27 26 26 25 24 23 22 21 21 21 20 20 20 20 19 19 19 18 18 18 18 18 18 18 18 18
31 31 30 30 31 31 31 31 31 30 30 31 31 30 30 30 29 29 28 27 26 25 25 24 23 22 21 21 20 20 20 20 20 20 19 19 18 18 18 18 18 18 18 18
31 31 31 31 31 31 30 30 30 30 31 30 30 30 30 31 30 30 29 27 26 26 25 24 23 22 22 21 21 20 20 20 20 20 19 19 19 19 18 18 18 18 18 18
30 30 31 30 30 30 30 30 29 29 30 30 30 30 30 31 31 30 29 28 27 26 25 24 23 22 22 21 21 21 20 20 20 20 20 19 19 19 19 18 18 18 18 18
29 30 30 30 31 30 30 31 30 29 30 30 30 30 31 31 30 29 29 28 27 26 25 24 23 23 22 21 21 21 20 20 20 20 20 20 19 19 19 19 18 18 18 18
30 30 30 30 30 31 30 31 31 30 30 30 31 30 30 30 30 29 29 28 27 26 25 25 24 23 22 22 21 21 21 20 20 20 20 20 20 19 19 19 19 18 18 18
30 29 30 29 30 30 31 31 30 30 28 29 30 30 30 30 30 30 30 29 27 26 26 25 24 23 23 22 21 21 21 21 21 20 20 20 20 20 20 19 19 19 18 18
30 29 29 29 29 30 29 30 30 30 30 30 29 30 31 30 30 30 30 28 27 26 26 25 24 23 22 22 21 21 21 20 20 20 20 20 20 20 20 19 19 19 19 18
28 29 29 29 29 29 30 30 30 29 29 29 30 30 31 30 30 30 29 28 27 26 26 25 24 23 22 22 21 21 21 20 20 20 20 20 20 20 20 19 19 19 19 18
27 28 27 28 28 28 29 29 29 30 29 29 29 30 30 30 29 29 28 27 26 25 25 24 23 23 22 22 21 21 21 20 20 20 20 20 20 20 20 19 19 19 19 18
26 27 28 28 29 29 28 28 29 29 29 29 30 30 30 29 29 28 27 26 26 25 24 24 23 22 22 21 21 21 21 21 20 20 20 20 20 20 19 19 19 19 19 18
27 27 27 28 28 28 29 28 29 29 29 29 30 30 30 29 28 27 26 26 25 25 24 23 23 22 22 21 21 21 21 21 20 20 20 20 20 19 19 19 19 19 19 18
25 26 27 27 28 28 28 28 28 28 29 29 29 29 29 28 27 26 26 25 25 24 23 23 22 22 22 21 21 21 21 21 20 20 20 20 20 19 19 19 19 18 18 18
25 25 26 27 27 27 27 28 28 28 28 28 28 28 27 27 26 25 24 24 23 23 23 22 22 22 21 21 21 21 21 20 20 20 20 20 19 19 19 19 18 18 18 18
23 24 25 26 25 25 27 28 28 27 27 27 27 27 26 26 25 24 23 22 22 22 22 22 21 21 21 21 21 20 20 20 20 20 20 20 19 19 19 18 18 18 17 17
22 23 25 25 25 26 26 26 26 26 26 26 25 25 25 24 24 24 22 21 21 21 21 21 21 21 21 21 20 20 20 20 20 20 19 19 19 19 18 18 18 17 17 17
21 22 24 24 24 25 25 25 25 26 25 24 24 24 23 24 26 25 21 20 20 20 20 20 20 20 20 20 20 20 19 19 19 19 19 19 19 18 18 18 18 17 17 17
22 22 23 24 24 25 24 24 24 24 24 22 22 22 22 23 23 21 20 20 19 19 19 20 20 20 20 20 20 19 19 19 19 19 19 19 19 18 18 18 17 17 16 16
23 23 23 23 23 24 23 23 23 22 21 21 21 21 21 21 20 19 19 19 19 19 19 19 19 20 20 20 19 19 19 19 19 19 19 19 18 18 18 17 17 16 16 16
22 22 23 23 23 21 21 21 20 19 20 20 20 20 20 20 19 19 18 18 18 18 19 19 19 19 19 19 19 19 19 19 19 19 18 18 18 18 17 17 17 16 16 16
21 20 21 21 21 20 20 19 19 19 19 19 19 19 19 19 19 18 18 18 18 18 18 18 18 19 19 19 19 19 19 19 18 18 18 18 18 18 17 17 16 16 16 15
20 20 21 20 20 20 19 18 18 18 18 18 18 18 18 18 18 18 17 17 17 17 17 18 18 18 18 18 18 18 18 18 18 18 18 18 18 18 17 17 16 16 15 15
20 20 20 20 19 20 19 18 18 18 18 17 17 17 17 17 17 17 17 17 17 17 17 17 17 17 18 18 18 18 18 18 18 18 18 18 18 17 17 17 16 16 16 15

GEFSCGP_850_meantemp_288.txt.gz
Temperature
32 32 32 32 33 33 33 32 32 32 34 33 32 31 30 30 30 29 28 27 27 26 25 24 23 23 22 21 21 20 20 20 19 19 19 19 19 19 19 19 19 18 18 18
32 32 33 34 34 33 33 32 32 33 34 33 31 31 31 31 30 30 29 28 27 26 25 24 24 23 22 21 21 20 20 20 20 19 19 19 19 19 19 19 19 19 18 18
32 33 34 34 34 33 33 33 33 32 33 33 31 30 31 31 31 30 29 29 28 27 26 24 24 23 22 21 21 21 20 20 20 19 19 19 19 19 19 19 19 19 19 19
32 34 34 34 33 33 32 34 33 32 32 31 31 29 30 31 30 30 30 29 28 27 26 25 24 23 23 22 21 21 21 20 20 20 19 19 19 19 19 19 19 19 19 19
33 34 34 33 33 34 33 34 33 32 31 31 31 30 30 31 30 31 30 29 28 28 27 25 25 24 23 22 21 21 21 20 20 20 20 20 20 19 19 19 19 19 19 19
34 35 34 34 34 34 34 33 32 31 30 29 31 30 29 31 31 31 30 30 29 28 27 26 25 24 23 22 22 21 21 21 21 20 20 20 20 20 20 19 19 19 19 19
32 34 35 35 34 34 32 30 29 29 29 30 31 31 31 32 32 32 31 30 30 29 28 27 25 24 23 23 22 21 21 21 21 21 20 20 20 20 19 19 19 19 19 19
31 32 34 34 34 33 32 31 29 28 29 30 31 31 31 32 32 32 32 31 30 29 28 27 26 25 24 23 22 22 21 21 21 21 20 20 20 20 19 19 19 19 19 19
31 32 34 35 35 34 32 32 32 31 30 29 30 31 31 32 32 32 32 31 30 29 28 27 26 25 24 23 22 22 21 21 21 21 21 20 20 20 19 19 19 19 19 19
31 30 33 34 34 34 34 33 32 31 29 28 29 30 30 30 31 32 31 30 30 29 28 28 27 26 25 24 23 22 21 21 21 21 20 20 20 20 20 19 19 19 19 19
31 30 31 33 32 32 33 32 32 31 30 29 28 29 31 30 31 31 31 30 30 29 28 27 27 26 25 24 23 22 22 21 21 20 20 20 20 20 20 20 19 19 19 19
32 31 30 31 33 34 33 33 32 30 29 29 29 29 32 31 32 32 31 30 29 29 28 27 26 26 25 24 23 22 22 21 21 20 20 20 20 20 20 20 19 19 19 19
30 30 29 30 31 32 32 33 32 32 31 29 28 29 32 31 32 31 31 30 29 29 28 27 26 25 24 24 23 22 22 21 21 20 20 20 20 20 20 19 19 19 19 19
29 29 28 28 29 30 31 32 32 31 30 30 29 30 30 31 31 31 30 29 29 28 27 26 25 24 24 23 23 22 22 21 21 20 20 20 20 20 20 19 19 19 19 19
30 28 29 29 30 30 31 31 32 31 31 30 30 30 30 31 30 30 29 29 28 27 26 25 24 24 23 23 23 22 22 21 21 21 20 20 20 19 19 19 19 19 18 18
29 27 28 28 30 30 30 31 31 31 31 31 30 30 30 29 29 28 28 28 27 26 26 25 24 23 23 22 22 22 22 21 21 21 20 20 20 19 19 19 19 18 18 18
28 27 27 27 29 29 29 30 30 31 31 30 29 29 29 29 28 27 27 26 26 25 25 24 24 23 23 22 22 21 21 21 21 20 20 20 20 19 19 19 18 18 18 18
26 26 26 27 27 26 29 31 31 30 30 29 29 29 28 28 27 26 25 25 24 24 24 24 23 23 22 22 22 21 21 21 20 20 20 20 19 19 19 18 18 18 18 17
27 25 26 26 26 27 29 30 30 29 28 29 28 28 27 27 27 25 24 23 23 23 23 23 23 23 22 22 21 21 21 20 20 20 19 19 19 19 19 18 18 18 17 17
26 25 25 25 25 26 27 29 29 29 27 27 27 27 26 26 26 24 23 22 22 22 22 22 22 22 21 21 21 21 20 20 20 19 19 19 19 19 18 18 18 18 17 17
25 25 25 25 25 25 26 28 28 27 25 26 26 26 25 24 24 23 22 22 21 21 21 21 21 21 20 20 20 20 20 20 19 19 19 18 18 18 18 18 18 17 17 17
25 25 24 25 24 24 26 27 25 24 24 25 25 24 24 23 23 22 21 21 21 20 20 20 20 20 20 20 20 20 19 19 19 19 18 18 18 18 18 18 17 17 17 17
25 25 24 24 24 24 24 24 23 23 24 24 24 23 23 22 22 21 21 20 20 20 19 19 19 19 19 19 19 19 19 19 19 18 18 18 18 18 17 17 17 17 17 16
25 24 23 23 24 24 24 23 23 23 23 23 23 23 22 22 21 20 20 20 19 19 19 19 19 18 18 18 18 19 18 18 18 18 18 18 18 17 17 17 17 17 17 16
23 24 23 22 23 23 23 23 22 22 22 22 22 22 21 21 20 20 20 19 19 19 18 18 18 18 18 18 18 18 18 18 18 18 18 17 17 17 17 17 17 16 16 16
23 22 22 22 22 22 22 22 22 22 21 21 21 21 20 20 20 19 19 19 18 18 18 18 18 17 17 17 17 18 18 18 17 17 17 17 17 17 17 17 17 16 16 16